DW1520 Weather Reports


time (UTC)temp
F
wind
direction
speed
knots
gust
knots
rain 1hr
in
rain 24hr
in
rain mn
in
humidity
%
barometer
mb
20240723044505 68 240 0.0 0.9 0.00 0.01 0.01 81 1011.6
20240723043506 69 240 0.0 0.9 0.00 0.01 0.01 80 1011.6
20240723042005 68 240 0.0 0.9 0.00 0.01 0.01 79 1011.6
20240723041505 68 240 0.0 1.7 0.00 0.01 0.01 79 1011.6
20240723040505 68 240 0.0 0.0 0.00 0.01 0.01 80 1011.5
20240723040005 68 240 0.0 0.0 0.00 0.01 0.01 80 1011.5
20240723035506 67 240 0.0 0.0 0.00 0.01 0.01 80 1011.5
20240723035005 67 240 0.0 0.0 0.00 0.01 0.01 80 1011.4
20240723034505 67 240 0.0 0.0 0.00 0.01 0.01 81 1011.4
20240723034006 67 240 0.0 0.0 0.00 0.01 0.01 81 1011.4
20240723033505 67 240 0.0 0.0 0.00 0.01 0.01 82 1011.3
20240723032505 67 240 0.0 0.0 0.00 0.01 0.01 80 1011.2
20240723032005 67 240 0.0 0.9 0.00 0.01 0.01 80 1011.3
20240723031505 67 267 0.0 0.0 0.00 0.01 0.01 80 1011.3
20240723031005 67 267 0.0 0.0 0.00 0.01 0.01 79 1011.3
20240723030505 67 267 0.0 0.9 0.00 0.01 0.01 79 1011.4
20240723030005 67 267 0.0 1.7 0.00 0.01 0.01 78 1011.4
20240723025506 68 242 0.0 0.9 0.00 0.01 0.01 79 1011.7
20240723025006 68 241 0.0 1.7 0.00 0.01 0.01 79 1011.8
20240723024505 68 286 0.0 1.7 0.00 0.01 0.01 80 1011.9
20240723024005 68 292 0.0 0.0 0.00 0.01 0.01 78 1011.5
20240723023505 68 292 0.0 0.0 0.00 0.01 0.01 78 1011.6
20240723022006 69 292 0.0 0.0 0.00 0.01 0.01 76 1011.3
20240723021006 69 292 0.0 0.0 0.00 0.01 0.01 74 1011.3
20240723020505 69 292 0.0 0.0 0.00 0.01 0.01 74 1011.4
20240723020005 70 292 0.0 0.0 0.00 0.01 0.01 73 1011.5
20240723015506 70 292 0.0 0.0 0.00 0.01 0.01 72 1011.2
20240723015005 70 292 0.0 0.0 0.00 0.01 0.01 74 1011.0
20240723014505 71 292 0.0 0.0 0.00 0.01 0.01 73 1010.8
20240723014006 71 292 0.0 0.9 0.00 0.01 0.01 73 1010.8
20240723013505 71 292 0.0 0.0 0.00 0.01 0.01 70 1010.9
20240723013005 72 292 0.0 0.9 0.00 0.01 0.01 68 1011.1
20240723012505 72 292 0.0 0.0 0.00 0.01 0.01 68 1011.2
20240723012006 72 292 0.0 0.9 0.00 0.01 0.01 67 1011.4
20240723011505 73 292 0.0 1.7 0.00 0.01 0.01 66 1011.6
20240723011005 73 292 0.0 1.7 0.00 0.01 0.01 65 1011.8
20240723010505 74 288 0.9 2.6 0.00 0.01 0.01 63 1011.9
20240723010006 75 329 1.7 8.7 0.00 0.01 0.01 62 1012.0
20240723005505 76 251 0.9 2.6 0.00 0.01 0.01 66 1012.2
20240723005006 77 250 0.0 2.6 0.00 0.01 0.01 74 1012.0
20240723004505 77 250 0.0 0.0 0.00 0.01 0.01 74 1011.7
20240723003506 77 250 0.0 1.7 0.00 0.01 0.01 74 1011.7
20240723002505 78 256 0.0 1.7 0.00 0.01 0.01 72 1011.5
20240723002006 78 256 0.9 2.6 0.00 0.01 0.01 72 1011.5
20240723001505 78 116 0.0 1.7 0.00 0.01 0.01 73 1011.3
20240723000505 79 116 0.0 0.0 0.00 0.01 0.01 73 1011.2
20240723000005 79 116 0.0 0.9 0.00 0.01 0.01 73 1011.3
20240722235505 79 242 0.0 0.9 0.00 0.01 0.01 74 1011.3
20240722235006 78 242 0.0 1.7 0.00 0.01 0.01 74 1011.2
20240722234505 78 316 0.0 1.7 0.00 0.01 0.01 73 1011.3
20240722234005 78 316 0.9 1.7 0.00 0.01 0.01 74 1011.4
20240722233005 78 317 0.0 0.9 0.00 0.01 0.01 72 1011.3
20240722232006 79 317 0.9 2.6 0.00 0.01 0.01 73 1011.1
20240722231505 79 259 0.9 6.1 0.00 0.01 0.01 72 1011.0
20240722231005 79 184 1.7 6.1 0.00 0.01 0.01 72 1011.0
20240722230505 79 186 0.9 2.6 0.00 0.01 0.01 73 1010.9
20240722230005 79 171 0.0 1.7 0.00 0.01 0.01 73 1010.9
20240722225006 79 175 0.9 2.6 0.00 0.01 0.01 72 1010.9
20240722224506 79 186 0.0 2.6 0.00 0.01 0.01 72 1011.0
20240722224005 79 173 0.0 0.9 0.00 0.01 0.01 71 1011.0
20240722223506 79 173 0.9 2.6 0.00 0.01 0.01 70 1011.1
20240722223005 80 163 1.7 5.2 0.00 0.01 0.01 70 1011.2
20240722222505 80 161 0.9 4.3 0.00 0.01 0.01 70 1011.3
20240722221505 80 168 0.9 4.3 0.00 0.01 0.01 71 1011.3
20240722221005 80 169 1.7 4.3 0.00 0.01 0.01 69 1011.2
20240722220506 80 166 0.9 5.2 0.00 0.01 0.01 68 1011.3
20240722220005 80 169 1.7 5.2 0.00 0.01 0.01 68 1011.3
20240722215505 81 169 1.7 2.6 0.00 0.01 0.01 69 1011.4
20240722215005 81 168 0.0 0.9 0.00 0.01 0.01 67 1011.4
20240722214505 81 168 0.0 4.3 0.00 0.01 0.01 65 1011.4
20240722214006 82 168 1.7 5.2 0.00 0.01 0.01 66 1011.4
20240722213505 82 171 1.7 5.2 0.00 0.01 0.01 68 1011.3
20240722213005 82 161 1.7 4.3 0.00 0.01 0.01 66 1011.3
20240722212506 82 246 0.0 1.7 0.00 0.01 0.01 64 1011.4
20240722212005 83 259 0.0 2.6 0.00 0.01 0.01 65 1011.5
20240722211006 83 182 1.7 2.6 0.00 0.01 0.01 65 1011.6
20240722210505 83 160 0.9 4.3 0.00 0.01 0.01 65 1011.7
20240722210005 83 168 1.7 4.3 0.00 0.01 0.01 66 1011.8
20240722205505 83 158 2.6 7.0 0.00 0.01 0.01 66 1011.8
20240722204505 83 154 0.9 5.2 0.00 0.01 0.01 67 1012.0
20240722204006 83 156 0.0 2.6 0.00 0.01 0.01 69 1012.1
20240722203505 83 156 1.7 4.3 0.00 0.01 0.01 67 1012.2
20240722202005 83 200 0.0 1.7 0.00 0.01 0.01 65 1012.4
20240722201505 84 164 0.9 1.7 0.00 0.01 0.01 66 1012.4
20240722201006 83 159 0.0 1.7 0.00 0.01 0.01 66 1012.3
20240722200506 84 142 0.9 2.6 0.00 0.01 0.01 62 1012.3
20240722200005 84 132 0.0 2.6 0.00 0.01 0.01 65 1012.5
20240722195506 84 123 1.7 7.8 0.00 0.01 0.01 64 1012.5
20240722195005 84 170 0.9 4.3 0.00 0.01 0.01 65 1012.6
20240722194505 84 166 0.9 4.3 0.00 0.01 0.01 67 1012.8
20240722194005 83 164 0.0 0.9 0.00 0.01 0.01 63 1013.0
20240722193505 83 164 3.5 7.8 0.00 0.01 0.01 61 1013.1
20240722193005 84 130 0.0 2.6 0.00 0.01 0.01 64 1013.1
20240722192505 84 123 0.9 5.2 0.00 0.01 0.01 65 1013.2
20240722192005 84 163 0.9 2.6 0.00 0.01 0.01 64 1013.2
20240722191005 84 169 0.0 1.7 0.00 0.01 0.01 67 1013.3
20240722190505 84 169 2.6 5.2 0.00 0.01 0.01 66 1013.2
20240722190005 84 174 1.7 4.3 0.00 0.01 0.01 65 1013.3
20240722185505 84 171 1.7 5.2 0.00 0.01 0.01 61 1013.4
20240722185005 85 178 1.7 5.2 0.00 0.01 0.01 64 1013.4
20240722184505 85 162 0.9 5.2 0.00 0.01 0.01 61 1013.5
20240722184006 84 163 0.0 2.6 0.00 0.01 0.01 62 1013.6
20240722183505 84 159 1.7 5.2 0.00 0.01 0.01 63 1013.7
20240722182505 83 165 0.9 2.6 0.00 0.01 0.01 63 1013.8
20240722182005 82 165 0.9 2.6 0.00 0.01 0.01 68 1013.9
20240722181505 82 295 0.0 2.6 0.00 0.01 0.01 67 1014.0
20240722181005 82 254 0.9 2.6 0.00 0.01 0.01 66 1014.0
20240722180505 82 187 0.0 1.7 0.00 0.01 0.01 60 1014.1
20240722180005 83 187 0.0 1.7 0.00 0.01 0.01 65 1014.1
20240722175005 82 171 0.9 1.7 0.00 0.01 0.01 66 1014.1
20240722174505 82 165 0.0 1.7 0.00 0.01 0.01 64 1014.1
20240722173505 83 165 0.9 2.6 0.00 0.01 0.01 67 1014.3
20240722173006 83 161 0.9 4.3 0.00 0.01 0.01 62 1014.4
20240722172005 83 161 0.9 4.3 0.00 0.02 0.01 69 1014.6
20240722171505 82 157 0.9 2.6 0.00 0.02 0.01 64 1014.6
20240722170505 82 167 0.0 2.6 0.00 0.02 0.01 68 1014.6
20240722170005 82 167 0.9 2.6 0.00 0.02 0.01 62 1014.7
20240722165505 82 167 0.0 2.6 0.00 0.02 0.01 67 1014.7
20240722164005 81 167 0.9 5.2 0.00 0.03 0.01 68 1014.6
20240722163505 80 164 0.9 2.6 0.00 0.03 0.01 68 1014.6
20240722163005 80 257 0.9 2.6 0.00 0.03 0.01 67 1014.7
20240722162508 80 193 0.9 2.6 0.00 0.03 0.01 70 1014.7
20240722162005 80 231 1.7 2.6 0.00 0.03 0.01 68 1014.7
20240722161505 80 264 0.0 1.7 0.00 0.03 0.01 73 1014.8
20240722160505 78 273 0.0 0.9 0.00 0.03 0.01 74 1014.8
20240722160005 78 273 0.0 2.6 0.00 0.03 0.01 68 1014.8
20240722155005 78 271 0.0 1.7 0.00 0.03 0.01 72 1015.0
20240722154505 78 271 0.0 1.7 0.00 0.03 0.01 73 1015.1
20240722154005 77 271 0.0 1.7 0.00 0.03 0.01 74 1015.3
20240722153506 77 271 0.0 1.7 0.00 0.03 0.01 77 1015.4
20240722153005 76 249 0.0 1.7 0.00 0.04 0.01 76 1015.3
20240722152505 76 249 0.9 2.6 0.00 0.04 0.01 72 1015.3
20240722152005 76 153 0.0 1.7 0.00 0.04 0.01 76 1015.3
20240722151506 76 153 0.9 1.7 0.00 0.04 0.01 80 1015.2
20240722151005 76 153 0.0 0.9 0.00 0.05 0.01 81 1015.2
20240722150505 75 153 0.0 0.9 0.00 0.05 0.01 80 1015.2
20240722150005 75 153 0.9 1.7 0.00 0.06 0.01 78 1015.1
20240722145505 75 153 0.9 1.7 0.00 0.07 0.01 81 1015.0
20240722145005 74 153 0.9 2.6 0.00 0.07 0.01 81 1015.1
20240722144505 74 152 0.9 2.6 0.00 0.07 0.01 83 1015.2
20240722144006 73 152 0.0 0.9 0.00 0.07 0.01 85 1015.2
20240722143505 72 152 0.0 0.9 0.00 0.07 0.01 86 1015.3
20240722143005 72 152 0.0 0.0 0.00 0.07 0.01 87 1015.3
20240722142506 71 152 0.0 1.7 0.00 0.07 0.01 89 1015.3
20240722142005 71 152 0.9 1.7 0.00 0.07 0.01 90 1015.3
20240722141505 70 152 0.9 2.6 0.00 0.07 0.01 91 1015.3
20240722141005 69 152 1.7 2.6 0.00 0.07 0.01 91 1015.4
20240722140505 69 152 1.7 2.6 0.00 0.07 0.01 92 1015.4
20240722140005 69 151 0.9 2.6 0.00 0.07 0.01 92 1015.4
20240722135505 69 180 1.7 2.6 0.00 0.07 0.01 92 1015.4
20240722135005 68 180 0.9 1.7 0.00 0.07 0.01 93 1015.4
20240722134006 67 180 0.9 2.6 0.00 0.07 0.01 92 1015.5
20240722133505 66 180 1.7 2.6 0.00 0.07 0.01 92 1015.5
20240722133005 66 201 1.7 2.6 0.00 0.07 0.01 93 1015.4
20240722131005 65 355 0.9 2.6 0.00 0.07 0.01 93 1015.6
20240722130505 65 355 0.9 2.6 0.00 0.07 0.01 93 1015.6
20240722130005 64 355 0.9 2.6 0.00 0.07 0.01 93 1015.6
20240722125508 64 355 0.9 2.6 0.00 0.07 0.01 93 1015.6
20240722125006 64 355 0.9 1.7 0.00 0.07 0.01 93 1015.6
20240722124505 63 355 0.9 1.7 0.00 0.07 0.01 93 1015.7
20240722123505 63 355 0.9 0.9 0.00 0.07 0.01 93 1015.8
20240722123005 62 355 0.9 1.7 0.00 0.07 0.01 93 1015.8
20240722122505 62 355 0.9 1.7 0.00 0.07 0.01 93 1015.8
20240722122005 62 355 0.9 1.7 0.00 0.07 0.01 93 1015.9
20240722121505 61 355 0.0 1.7 0.00 0.07 0.01 93 1015.8
20240722121006 61 355 0.9 1.7 0.00 0.07 0.01 93 1015.9
20240722120505 61 355 0.0 0.0 0.00 0.07 0.01 93 1015.8
20240722120005 61 355 0.0 0.0 0.00 0.07 0.01 93 1015.8
20240722115005 61 355 0.9 0.9 0.00 0.07 0.01 93 1015.7
20240722114505 61 355 0.9 0.9 0.00 0.07 0.01 93 1015.6
20240722114005 61 355 0.9 0.9 0.00 0.07 0.01 93 1015.7
20240722113505 61 355 0.0 0.0 0.00 0.07 0.01 93 1015.8
20240722113005 61 355 0.0 0.0 0.00 0.07 0.01 93 1015.8
20240722112505 61 355 0.0 0.0 0.00 0.07 0.01 93 1015.8
20240722112005 61 355 0.0 0.0 0.00 0.07 0.01 93 1015.8
20240722111504 61 355 0.0 0.0 0.00 0.07 0.01 93 1015.8
20240722110505 61 355 0.0 0.0 0.00 0.07 0.01 93 1015.8
20240722110005 61 355 0.0 0.0 0.00 0.07 0.01 93 1015.8
20240722105005 61 355 0.0 0.0 0.01 0.07 0.01 93 1015.8
20240722104506 61 355 0.0 0.0 0.01 0.07 0.01 93 1015.8
20240722104005 61 355 0.0 0.0 0.01 0.07 0.01 93 1015.7
20240722103505 61 355 0.0 0.0 0.01 0.07 0.01 93 1015.6
20240722102505 61 355 0.0 0.9 0.01 0.07 0.01 93 1015.7
20240722101007 61 355 0.9 1.7 0.01 0.07 0.01 92 1015.7
20240722100506 61 355 0.0 0.0 0.01 0.07 0.01 92 1015.7
20240722100007 61 355 0.0 0.0 0.01 0.07 0.01 93 1015.7
20240722095506 61 355 0.0 0.0 0.00 0.06 0.00 93 1015.7
20240722094007 61 355 0.0 0.0 0.00 0.06 0.00 93 1015.4
20240722093506 61 355 0.0 0.0 0.00 0.06 0.00 93 1015.3
20240722092507 61 355 0.0 0.0 0.00 0.06 0.00 92 1015.3
20240722091506 61 355 0.0 0.0 0.00 0.06 0.00 92 1015.3
20240722091007 61 355 0.0 0.9 0.00 0.06 0.00 92 1015.3
20240722090506 61 355 0.0 0.9 0.00 0.06 0.00 92 1015.3
20240722090006 61 355 0.0 0.9 0.00 0.06 0.00 92 1015.4
20240722085507 61 355 0.0 0.0 0.00 0.06 0.00 92 1015.5
20240722085007 61 355 0.0 0.0 0.00 0.06 0.00 92 1015.6
20240722084506 61 355 0.0 0.0 0.00 0.06 0.00 92 1015.6
20240722084006 61 355 0.0 0.0 0.00 0.06 0.00 92 1015.6
20240722083507 62 355 0.0 0.0 0.00 0.06 0.00 92 1015.7
20240722082506 62 355 0.0 0.0 0.00 0.06 0.00 92 1015.8
20240722082007 62 355 0.0 0.0 0.00 0.06 0.00 92 1015.8
20240722081506 62 355 0.0 0.0 0.00 0.06 0.00 92 1015.8
20240722081006 62 355 0.0 0.0 0.00 0.06 0.00 92 1015.9
20240722080506 63 355 0.0 0.0 0.00 0.06 0.00 92 1015.9
20240722080006 63 355 0.0 0.0 0.00 0.06 0.00 92 1015.9
20240722075506 63 355 0.0 0.0 0.00 0.06 0.00 92 1016.0
20240722075007 63 355 0.0 0.0 0.00 0.06 0.00 92 1016.0
20240722074506 63 355 0.0 0.0 0.00 0.06 0.00 92 1016.0
20240722074007 62 355 0.0 0.9 0.00 0.06 0.00 92 1016.1
20240722073507 63 355 0.0 0.0 0.00 0.06 0.00 92 1016.1
20240722073006 63 355 0.0 0.0 0.00 0.06 0.00 92 1016.2
20240722071506 63 355 0.0 0.0 0.00 0.06 0.00 92 1016.2
20240722071006 64 355 0.0 0.0 0.00 0.06 0.00 92 1016.2
20240722070506 64 355 0.0 0.0 0.00 0.06 0.00 92 1016.1
20240722070006 64 355 0.0 0.0 0.00 0.06 0.00 92 1016.1
20240722065506 64 355 0.0 0.0 0.00 0.06 0.00 92 1016.1
20240722065007 64 355 0.0 0.0 0.00 0.06 0.00 92 1016.2
20240722064506 64 355 0.0 0.0 0.00 0.06 0.00 92 1016.3
20240722064007 64 355 0.0 0.0 0.00 0.06 0.00 92 1016.3
20240722063507 64 355 0.0 0.9 0.00 0.06 0.00 92 1016.2
20240722063006 64 355 0.0 0.0 0.00 0.06 0.00 92 1016.2
20240722062506 65 355 0.0 0.0 0.00 0.06 0.00 92 1016.3
20240722062006 64 355 0.0 0.9 0.00 0.06 0.00 92 1016.3
20240722061506 64 355 0.0 0.0 0.00 0.06 0.00 92 1016.3
20240722061006 64 355 0.0 0.0 0.00 0.06 0.00 92 1016.3
20240722060506 64 355 0.0 0.0 0.00 0.06 0.00 92 1016.4
20240722060006 64 355 0.0 0.0 0.00 0.06 0.00 92 1016.4
20240722055506 64 355 0.0 0.0 0.00 0.06 0.00 92 1016.4
20240722055006 64 355 0.0 0.0 0.00 0.06 0.00 92 1016.4
20240722054007 64 355 0.0 0.0 0.00 0.06 0.00 92 1016.3
20240722053506 65 355 0.0 0.0 0.00 0.06 0.00 91 1016.4
20240722052506 65 355 0.0 0.0 0.00 0.06 0.00 91 1016.4
20240722052006 65 355 0.0 0.0 0.00 0.06 0.00 91 1016.4
20240722051506 65 355 0.0 0.0 0.00 0.06 0.00 91 1016.4
20240722051006 65 355 0.0 0.0 0.00 0.06 0.00 91 1016.5
20240722050506 65 355 0.0 0.0 0.00 0.06 0.00 91 1016.5
20240722050006 65 355 0.0 0.0 0.00 0.06 0.00 91 1016.5
20240722045506 65 355 0.0 0.0 0.00 0.06 0.06 91 1016.5
20240722045007 65 355 0.0 0.0 0.00 0.06 0.06 91 1016.6